Location: *
(49.2559°S, 171.3189°W)
Time: 16:27:09
(UTC+00:00)

Daily predictions for brighter satellites

Satellite Brightness Start Highest point End
(mag) Time Altitude Azimuth Time Altitude Azimuth Time Altitude Azimuth
ATLAS 2AS CENTAUR R/B 4.3 14:13:31 30° E 14:13:31 30° E 14:17:12 10° ENE
ACS3 Solar Sail 4.4 14:16:03 10° E 14:19:27 15° SE 14:22:52 10° SSE
SL-16 R/B 4.3 14:38:46 21° SE 14:38:46 21° SE 14:40:39 10° SE
Cosmos 2322 Rocket 3.9 14:50:54 28° ESE 14:50:54 28° ESE 14:53:48 10° SE
Cosmos 2360 Rocket 3.2 15:14:05 43° ESE 15:14:05 43° ESE 15:18:09 10° SE
BREEZE-M DEB (TANK) 4.2 15:24:11 67° E 15:24:11 67° E 15:35:18 10° ESE
Centaur D AC-29 4.5 15:22:05 17° N 15:25:27 21° NNE 15:42:22 10° ENE
Cosmos 2333 Rocket 2.9 15:28:47 48° SE 15:28:47 48° SE 15:32:53 10° SSE
Cosmos 1943 Rocket 4.2 15:31:23 15° S 15:34:30 23° SE 15:38:58 10° E
Lacrosse 5 rocket 3.8 15:36:01 17° E 15:36:01 17° E 15:37:24 10° ESE
CZ-4C R/B 3.7 15:39:21 33° SSW 15:39:21 33° SSW 15:44:27 10° SE
Cosmos 1464 Rocket 4.1 15:40:12 66° S 15:40:12 66° S 15:45:34 10° S
Cosmos 371 Rocket 4.1 15:42:31 50° E 15:42:31 50° E 15:46:49 10° NE
Cosmos 968 Rocket 3.9 15:43:58 60° E 15:43:58 60° E 15:48:28 10° NNE
ATLAS 5 CENTAUR R/B 4.0 15:45:00 22° S 15:46:06 23° S 15:50:45 10° ESE
Cosmos 2026 Rocket 4.2 15:42:25 10° S 15:48:36 67° ESE 15:54:47 10° NNE
Cosmos 2333 4.1 15:53:19 84° NE 15:53:24 85° ENE 15:59:08 10° SSE
Cosmos 1908 Rocket 4.3 15:56:52 34° NNE 15:58:26 51° E 16:02:47 10° SSE
SL-16 R/B 2.5 15:53:14 10° SSE 15:59:36 84° ENE 16:04:52 15° NNW
ATLAS 2AS CENTAUR R/B 2.9 16:01:00 55° WNW 16:01:05 55° WNW 16:08:17 10° NNE
USA 305 4.0 16:03:03 38° ENE 16:03:03 38° ENE 16:05:34 10° ENE
ACS3 Solar Sail 2.2 15:55:26 10° NNE 16:01:38 65° ESE 16:07:57 10° S
SJ 16-02 3.9 16:08:05 11° N 16:08:05 11° N 16:08:10 10° N
Meteor 1-11 4.3 15:58:11 10° S 16:03:57 76° ESE 16:09:35 10° NNE
SMAP 4.3 16:01:10 10° NE 16:05:32 40° ESE 16:09:58 10° S
SL-4 R/B 3.6 16:09:12 27° NNE 16:09:12 27° NNE 16:11:23 10° NE
Cosmos 2219 Rocket 2.1 16:09:57 49° NNW 16:11:35 88° ENE 16:17:17 10° SSE
IRS-1C 4.3 16:08:20 10° NNE 16:13:41 74° ESE 16:19:05 10° SSW
Cosmos 304 Rocket 3.6 16:15:01 76° SSW 16:15:24 89° WNW 16:20:12 10° NNE
Cosmos 1850 Rocket 3.9 16:15:24 67° WSW 16:15:57 74° WNW 16:21:17 10° NNE
Cosmos 1980 Rocket 4.3 16:19:03 13° SSW 16:19:03 13° SSW 16:20:49 10° S
CENTAUR R/B 4.3 16:10:48 10° N 16:18:25 38° ENE 16:24:50 10° SE
SL-16 R/B 3.3 16:20:37 29° SSW 16:20:37 29° SSW 16:24:35 10° SSE
COSMOS 2428 3.8 16:15:52 10° N 16:21:16 45° ENE 16:26:44 10° SE
Cosmos 2278 Rocket 3.1 16:17:34 15° SSW 16:22:04 46° SE 16:27:32 10° NE
Cosmos 1092 Rocket 3.9 16:15:50 10° SSW 16:22:10 79° W 16:28:22 10° N
Cosmos 1975 Rocket 4.2 16:20:51 10° S 16:25:04 43° ESE 16:29:12 10° NNE
Cosmos 1627 Rocket 4.3 16:19:25 10° SSW 16:25:38 72° W 16:31:50 10° N
Cosmos 1634 Rocket 4.1 16:20:09 10° N 16:26:27 81° E 16:32:46 10° S
IRAS Rocket 4.2 16:23:32 10° N 16:29:01 61° WNW 16:32:00 28° SSW
Cosmos 2322 Rocket 2.7 16:32:43 38° SW 16:32:43 38° SW 16:37:52 10° SSE
Cosmos 2279 Rocket 4.4 16:27:19 10° N 16:33:27 64° E 16:39:40 10° SSE
Cosmos 1452 Rocket 3.4 16:34:29 17° NNW 16:38:36 78° WSW 16:43:58 10° SSE
ARIANE 5 R/B 2.4 16:36:24 10° N 16:41:24 69° WNW 16:46:29 10° SSW
Cosmos 1110 Rocket 3.9 16:40:01 30° NW 16:42:29 62° WSW 16:47:41 10° SSE
BREEZE-M DEB (TANK) 3.7 16:37:32 27° W 16:44:45 89° S 16:48:33 10° E
CZ-2D R/B 3.2 16:42:00 10° N 16:44:46 51° NNW 16:44:46 51° NNW
Cosmos 1025 Rocket 3.7 16:47:17 37° NW 16:47:17 37° NW 16:50:31 10° NNW
Cosmos 1741 Rocket 4.4 16:48:48 37° WSW 16:49:48 41° WNW 16:54:41 10° N
ERS-1 4.5 16:45:33 10° N 16:50:45 68° WNW 16:55:59 10° SSW
Cosmos 332 Rocket 4.1 16:46:31 12° SSW 16:50:56 68° ESE 16:55:45 10° NNE
Cosmos 1782 Rocket 3.5 16:47:58 10° N 16:52:26 87° W 16:56:59 10° S
SJ-12 3.9 16:51:56 10° N 16:55:46 53° W 16:57:22 31° SW
Cosmos 2360 Rocket 2.9 16:55:52 30° WSW 16:56:51 32° SW 17:01:57 10° SSE
SL-08 ROCKET BODY 4.5 16:51:40 10° S 16:57:39 79° E 17:03:33 10° NNE
Cosmos 1606 4.2 16:54:57 10° NNE 16:57:48 31° E 17:00:41 10° SSE
Gbstr 26 Del rocket 3.5 16:55:37 34° W 16:57:50 73° S 17:03:53 10° ESE
BREEZE-M DEB (TANK) 2.8 16:58:39 33° N 16:59:05 37° NNE 17:01:05 10° E
GEOS 3 Rocket 4.2 16:55:05 10° SSE 16:59:56 39° SW 17:01:50 29° WSW
BlueWalker 3 4.4 16:57:32 10° N 17:00:20 20° NE 17:03:09 10° E
Spot 4 Rocket 4.3 16:56:18 10° NNE 17:01:25 70° ESE 17:06:35 10° S
IGS 5A 3.3 16:57:30 10° N 17:01:34 73° WNW 17:05:40 10° SSW
Timation 2 Rocket 4.3 16:58:20 16° SW 17:03:43 53° WNW 17:10:13 10° N
NOSS 0 Rocket 4.4 17:01:27 10° NNW 17:07:32 63° ENE 17:13:40 10° SE
CZ-2D R/B 3.2 17:04:51 10° NNE 17:08:45 81° WNW 17:12:49 10° SSW
SJ-6F 4.4 17:04:49 10° N 17:08:49 57° W 17:12:50 10° SSW
Lacrosse 5 rocket 1.0 17:10:04 32° WNW 17:11:37 67° SSW 17:15:24 10° SE
Cosmos 2333 Rocket 3.3 17:10:49 22° WSW 17:12:07 24° SW 17:16:44 10° SSE
Orbus 7S? 3.5 17:10:39 21° WSW 17:14:17 85° NW 17:17:28 10° NE
Cosmos 2266 Rocket 4.1 17:09:28 10° S 17:15:55 84° E 17:22:11 10° N
UNK 4.4 17:12:22 10° S 17:16:32 32° WSW 17:20:39 10° NW
YAOGAN 1 4.0 17:13:44 10° NE 17:17:45 39° ESE 17:21:49 10° S
Cosmos 2180 Rocket 4.4 17:11:33 10° N 17:17:45 86° W 17:24:02 10° S
Cosmos 1302 Rocket 4.0 17:13:13 10° NNW 17:18:32 72° WSW 17:23:53 10° SSE
Cosmos 1943 Rocket 2.2 17:13:14 10° SSW 17:18:59 86° WNW 17:24:39 10° NNE
Cosmos 371 Rocket 4.4 17:21:04 22° W 17:22:02 23° W 17:25:46 10° NNW
Cosmos 2237 Rocket 3.0 17:16:37 10° N 17:22:12 56° ENE 17:27:50 10° SE
SL-19 R/B 3.9 17:19:20 10° NNE 17:22:44 80° WNW 17:26:30 10° SSW
Cosmos 2369 Rocket 4.0 17:20:46 10° SSW 17:25:24 25° SE 17:30:01 10° E
Genesis I 2.6 17:25:46 31° W 17:26:32 41° SW 17:29:07 10° SSE
Cosmos 2322 3.8 17:21:21 10° NW 17:27:01 57° SW 17:32:44 10° SSE
Cosmos 1300 Rocket 4.0 17:23:27 10° NW 17:27:40 40° WSW 17:31:57 10° S
USA 307 2.5 17:26:28 24° SW 17:27:57 52° SSE 17:31:27 10° E
CZ-4C R/B 4.0 17:24:21 13° SW 17:28:52 23° S 17:33:22 10° SE
USA 305 4.0 17:28:37 19° W 17:30:15 24° NW 17:33:23 10° N
ATLAS 5 CENTAUR R/B 3.3 17:25:03 10° SW 17:30:56 38° SSE 17:35:48 10° E
Cosmos 1241 Rocket 4.4 17:26:14 10° NW 17:32:26 76° SW 17:38:41 10° SE
Cosmos 1500 2.1 17:31:22 10° S 17:33:56 85° ESE 17:36:29 10° N
SPOT 1/Viking Rocket 4.2 17:34:36 10° NNE 17:39:42 58° ESE 17:44:53 10° S
COSMO-SKYMED 1 2.8 17:36:39 10° SSE 17:41:01 77° ENE 17:45:18 10° N
SL-16 R/B 3.6 17:37:43 10° S 17:42:28 23° SW 17:47:11 10° WNW
SMAP 4.0 17:38:56 10° NNW 17:42:59 28° W 17:47:05 10° SW
Cosmos 1655 Rocket 4.2 17:37:59 10° S 17:44:25 82° E 17:50:43 10° N
CZ-4 R/B 4.0 17:42:37 10° E 17:44:49 15° ESE 17:47:03 10° SSE
ACS3 Solar Sail 2.7 17:40:18 10° NW 17:45:29 26° W 17:50:44 10° SSW
Cosmos 292 Rocket 3.7 17:43:53 10° SSW 17:48:41 85° WNW 17:53:26 10° NNE
PSLV R/B 3.8 17:45:03 10° N 17:49:07 45° W 17:53:12 10° SSW
ATLAS 2AS CENTAUR R/B 4.4 17:48:29 11° W 17:50:30 12° WNW 17:53:06 10° WNW
ISS -0.3 17:51:10 10° NNE 17:52:24 12° NE 17:53:38 10° ENE
SL-16 R/B 4.4 17:48:42 10° NNE 17:53:38 31° ENE 17:58:36 10° SE
Cosmos 2219 Rocket 3.4 17:51:55 10° W 17:56:17 23° SW 18:00:43 10° S
Resurs 01 Rocket 3.4 17:54:31 10° NE 17:58:30 33° ESE 18:02:31 10° S
Cosmos 2151 Rocket 3.6 17:55:38 10° N 18:00:06 88° WSW 18:04:40 10° S
Cosmos 1975 Rocket 4.3 17:59:11 10° SW 18:02:30 21° W 18:05:46 10° NW
Cosmos 2058 3.1 17:59:01 10° S 18:03:03 73° E 18:07:02 10° NNE
SL-16 R/B 4.2 18:04:06 10° SW 18:05:32 11° SSW 18:06:58 10° S
Cosmos 2285 Rocket 4.5 17:59:06 10° SSW 18:05:35 66° ESE 18:11:56 10° NE
COSMOS 2428 3.2 18:00:18 10° WNW 18:05:37 38° SW 18:10:59 10° SSE
Cosmos 2278 Rocket 2.9 18:00:52 10° SW 18:06:01 35° WNW 18:11:08 10° N
Cosmos 1992 Rocket 4.2 18:02:43 10° NW 18:07:49 52° WSW 18:12:59 10° SSE
CENTAUR R/B 2.9 18:00:46 10° NW 18:08:55 68° SW 18:15:29 10° SE
NOSS 3-3 (A) 4.0 18:03:19 10° SW 18:10:05 82° SE 18:15:39 10° NE
Okean 2 Rocket 3.1 18:08:00 10° NNW 18:12:32 80° W 18:17:07 10° S
SKYMED 2 3.8 18:09:01 10° S 18:13:20 52° WSW 18:17:36 10° NW
Cosmos 1486 Rocket 4.2 18:12:17 10° SSW 18:17:36 62° WNW 18:22:48 10° N
SL-23 DEB 4.2 18:12:20 10° W 18:18:14 69° S 18:21:55 10° ESE
Radarsat Rocket 4.2 18:11:42 10° N 18:18:23 64° WNW 18:24:29 10° SSW
